Вернуться в каталог

STARLINK-34248

АктивенСвязьVLEO
NORAD 64928·PAYLOAD·🇺🇸 United States

Запущен Jul 26, 2025 с Cape Canaveral Space Force Station

Loading…

Ближайшие Пролёты (ближайшие 24 часа)

TLE

СвежийSource: CelesTrak SupGP

Эпоха: Sep 15, 2026, 03:45 UTC

1 64928C 25157AA  26258.15673611  .00019798  00000+0  58488-3 0  2589
2 64928  53.1586 182.9412 0001408  72.5875 145.2493 15.34382942    13

Отслеживайте STARLINK-34248 в реальном времени с AllMySat

Download on the App Store